EN

Hourly Weather Ladyzhynka

Today, 30 July, Friday

Time Temperature Precipitation Wind Pressure Humidity
00:00 +22°C° 0.3 mm 3 mps 739 mmHg 85%
01:00 +21°C° 0.3 mm 3 mps 740 mmHg 88%
02:00 +20°C° 0 mm 3 mps 739 mmHg 93%
03:00 +20°C° 0 mm 3 mps 740 mmHg 93%
04:00 +20°C° 0 mm 3 mps 740 mmHg 94%
05:00 +20°C° 0 mm 3 mps 740 mmHg 94%
06:00 +21°C° 0 mm 3 mps 740 mmHg 86%
07:00 +23°C° 0 mm 4 mps 740 mmHg 78%
08:00 +25°C° 0 mm 4 mps 740 mmHg 70%
09:00 +26°C° 0 mm 4 mps 741 mmHg 64%
10:00 +27°C° 0 mm 4 mps 741 mmHg 57%
11:00 +29°C° 0 mm 4 mps 741 mmHg 50%
12:00 +29°C° 0 mm 4 mps 741 mmHg 47%
13:00 +30°C° 0 mm 4 mps 740 mmHg 44%
14:00 +30°C° 0 mm 4 mps 740 mmHg 41%
15:00 +30°C° 0 mm 3 mps 740 mmHg 42%
16:00 +30°C° 0 mm 3 mps 740 mmHg 43%
17:00 +29°C° 0 mm 3 mps 740 mmHg 44%
18:00 +27°C° 0 mm 3 mps 740 mmHg 48%
19:00 +26°C° 0 mm 2 mps 740 mmHg 53%
20:00 +24°C° 0 mm 1 mps 740 mmHg 57%
21:00 +24°C° 0 mm 1 mps 740 mmHg 58%
22:00 +23°C° 0 mm 1 mps 740 mmHg 59%
23:00 +21°C° 0 mm 0 mps 740 mmHg 59%

Tomorrow, 31 July, Saturday

Time Temperature Precipitation Wind Pressure Humidity
00:00 +22°C° 0 mm 1 mps 740 mmHg 60%
01:00 +22°C° 0 mm 1 mps 740 mmHg 61%
02:00 +21°C° 0 mm 2 mps 740 mmHg 62%
03:00 +20°C° 0 mm 2 mps 740 mmHg 64%
04:00 +20°C° 0 mm 2 mps 740 mmHg 66%
05:00 +21°C° 0 mm 1 mps 740 mmHg 67%
06:00 +23°C° 0 mm 1 mps 741 mmHg 64%
07:00 +24°C° 0 mm 1 mps 741 mmHg 60%
08:00 +26°C° 0 mm 1 mps 741 mmHg 57%
09:00 +28°C° 0 mm 2 mps 741 mmHg 53%
10:00 +29°C° 0 mm 2 mps 741 mmHg 48%
11:00 +30°C° 0 mm 2 mps 741 mmHg 44%
12:00 +31°C° 0 mm 2 mps 741 mmHg 42%
13:00 +31°C° 0 mm 1 mps 741 mmHg 39%
14:00 +32°C° 0 mm 1 mps 741 mmHg 37%
15:00 +32°C° 0 mm 1 mps 741 mmHg 37%
16:00 +32°C° 0 mm 1 mps 740 mmHg 37%
17:00 +30°C° 0 mm 0 mps 740 mmHg 37%
18:00 +30°C° 0 mm 1 mps 740 mmHg 42%
19:00 +28°C° 0 mm 2 mps 740 mmHg 47%
20:00 +26°C° 0 mm 2 mps 740 mmHg 52%
21:00 +26°C° 0 mm 2 mps 740 mmHg 53%
22:00 +25°C° 0 mm 2 mps 740 mmHg 54%
23:00 +24°C° 0 mm 2 mps 741 mmHg 55%

Day after tomorrow, 1 August, Sunday

Time Temperature Precipitation Wind Pressure Humidity
00:00 +24°C° 0 mm 2 mps 741 mmHg 57%
01:00 +24°C° 0 mm 2 mps 741 mmHg 59%
02:00 +22°C° 0 mm 3 mps 740 mmHg 60%
03:00 +22°C° 0 mm 3 mps 740 mmHg 66%
04:00 +21°C° 0 mm 2 mps 740 mmHg 71%
05:00 +21°C° 0 mm 2 mps 740 mmHg 76%
06:00 +24°C° 0 mm 3 mps 740 mmHg 71%
07:00 +26°C° 0 mm 4 mps 740 mmHg 65%
08:00 +28°C° 0 mm 4 mps 741 mmHg 59%
09:00 +29°C° 0 mm 5 mps 741 mmHg 54%
10:00 +30°C° 0 mm 5 mps 741 mmHg 50%
11:00 +33°C° 0 mm 6 mps 741 mmHg 45%
12:00 +33°C° 0 mm 6 mps 741 mmHg 44%
13:00 +34°C° 0 mm 6 mps 740 mmHg 43%
14:00 +34°C° 0 mm 5 mps 740 mmHg 42%
15:00 +34°C° 0 mm 5 mps 740 mmHg 43%
16:00 +34°C° 0 mm 4 mps 740 mmHg 44%
17:00 +34°C° 0 mm 3 mps 740 mmHg 45%
18:00 +31°C° 0 mm 3 mps 739 mmHg 51%
19:00 +29°C° 0 mm 2 mps 739 mmHg 56%
20:00 +27°C° 0 mm 2 mps 739 mmHg 62%
21:00 +27°C° 0.1 mm 2 mps 739 mmHg 65%
22:00 +26°C° 0.1 mm 2 mps 739 mmHg 68%
23:00 +25°C° 0.1 mm 2 mps 739 mmHg 71%

2 August, Monday

Time Temperature Precipitation Wind Pressure Humidity
00:00 +24°C° 0.1 mm 2 mps 739 mmHg 71%
01:00 +24°C° 0.1 mm 2 mps 739 mmHg 71%
02:00 +23°C° 0.1 mm 2 mps 739 mmHg 72%
03:00 +21°C° 0.2 mm 3 mps 739 mmHg 74%
04:00 +21°C° 0.2 mm 3 mps 739 mmHg 76%
05:00 +20°C° 0.2 mm 3 mps 739 mmHg 78%
06:00 +22°C° 0.4 mm 4 mps 739 mmHg 75%
07:00 +23°C° 0.4 mm 5 mps 739 mmHg 73%
08:00 +24°C° 0.4 mm 6 mps 739 mmHg 71%
09:00 +26°C° 0 mm 6 mps 739 mmHg 67%
10:00 +27°C° 0 mm 7 mps 739 mmHg 63%
11:00 +27°C° 0 mm 7 mps 738 mmHg 59%
12:00 +29°C° 0 mm 6 mps 738 mmHg 55%
13:00 +30°C° 0 mm 5 mps 738 mmHg 51%
14:00 +32°C° 0 mm 4 mps 738 mmHg 47%
15:00 +32°C° 0.1 mm 5 mps 738 mmHg 47%
16:00 +33°C° 0.1 mm 5 mps 737 mmHg 47%
17:00 +33°C° 0.1 mm 6 mps 737 mmHg 47%
18:00 +29°C° 1 mm 5 mps 738 mmHg 60%
19:00 +26°C° 1 mm 4 mps 738 mmHg 73%
20:00 +21°C° 1 mm 3 mps 738 mmHg 86%
21:00 +20°C° 0.1 mm 3 mps 739 mmHg 87%
22:00 +20°C° 0.1 mm 3 mps 739 mmHg 89%
23:00 +19°C° 0.1 mm 3 mps 739 mmHg 90%

3 August, Tuesday

Time Temperature Precipitation Wind Pressure Humidity
00:00 +18°C° 0 mm 3 mps 740 mmHg 90%
01:00 +18°C° 0 mm 4 mps 740 mmHg 91%
02:00 +17°C° 0 mm 4 mps 740 mmHg 92%
03:00 +17°C° 0 mm 4 mps 740 mmHg 92%
04:00 +15°C° 0 mm 4 mps 741 mmHg 92%
05:00 +15°C° 0 mm 4 mps 741 mmHg 92%
06:00 +17°C° 0 mm 4 mps 742 mmHg 84%
07:00 +17°C° 0 mm 5 mps 742 mmHg 77%
08:00 +20°C° 0 mm 5 mps 742 mmHg 69%
09:00 +21°C° 0 mm 5 mps 743 mmHg 63%
10:00 +23°C° 0 mm 4 mps 743 mmHg 56%
11:00 +25°C° 0 mm 4 mps 743 mmHg 50%
12:00 +26°C° 0 mm 4 mps 743 mmHg 48%
13:00 +27°C° 0 mm 4 mps 743 mmHg 45%
14:00 +28°C° 0 mm 4 mps 743 mmHg 43%
15:00 +27°C° 0 mm 4 mps 743 mmHg 45%
16:00 +27°C° 0 mm 4 mps 743 mmHg 46%
17:00 +27°C° 0 mm 4 mps 743 mmHg 48%
18:00 +25°C° 0 mm 3 mps 743 mmHg 51%
19:00 +24°C° 0 mm 3 mps 743 mmHg 55%
20:00 +23°C° 0 mm 2 mps 744 mmHg 58%
21:00 +21°C° 0 mm 2 mps 744 mmHg 61%
22:00 +20°C° 0 mm 2 mps 744 mmHg 63%
23:00 +20°C° 0 mm 2 mps 744 mmHg 66%

4 August, Wednesday

Time Temperature Precipitation Wind Pressure Humidity
00:00 +19°C° 0 mm 2 mps 744 mmHg 69%
01:00 +18°C° 0 mm 2 mps 744 mmHg 71%
02:00 +18°C° 0 mm 2 mps 745 mmHg 74%
03:00 +17°C° 0 mm 2 mps 745 mmHg 76%
04:00 +18°C° 0 mm 1 mps 745 mmHg 78%
05:00 +18°C° 0 mm 1 mps 745 mmHg 79%
06:00 +19°C° 0 mm 1 mps 745 mmHg 73%
07:00 +21°C° 0 mm 1 mps 745 mmHg 67%
08:00 +23°C° 0 mm 1 mps 745 mmHg 61%
09:00 +25°C° 0 mm 2 mps 745 mmHg 56%
10:00 +26°C° 0 mm 2 mps 745 mmHg 51%
11:00 +28°C° 0 mm 3 mps 745 mmHg 45%
12:00 +28°C° 0 mm 3 mps 744 mmHg 43%
13:00 +29°C° 0 mm 3 mps 744 mmHg 42%
14:00 +30°C° 0 mm 3 mps 744 mmHg 40%
15:00 +29°C° 0 mm 3 mps 743 mmHg 44%
16:00 +28°C° 0 mm 2 mps 743 mmHg 48%
17:00 +27°C° 0 mm 1 mps 743 mmHg 52%
18:00 +26°C° 0.1 mm 2 mps 743 mmHg 55%
19:00 +25°C° 0.1 mm 3 mps 743 mmHg 57%
20:00 +24°C° 0.1 mm 3 mps 742 mmHg 60%
21:00 +22°C° 0.3 mm 4 mps 743 mmHg 68%
22:00 +21°C° 0.3 mm 5 mps 743 mmHg 75%
23:00 +20°C° 0.3 mm 5 mps 743 mmHg 83%
Show more